Location: Grange Verzio
(44.5000°N, 6.9833°E)
Time: 18:08:04
(UTC+00:00)

Cosmos 2219 Rocket - Pass Details

Date: 27 September 2023
Orbit: 826 x 848 km, 71.0° (Epoch: 08 December)

Event Time Altitude Azimuth Distance (km) Brightness Sun altitude
Rises 03:01:46 0° 339° (NNW) 3,394 5.4 -25.5°
Reaches altitude 10° 03:04:23 10° 347° (NNW) 2,459 4.7 -25.1°
Maximum altitude 03:09:40 39° 56° (NE) 1,240 3.5 -24.3°
Drops below altitude 10° 03:14:55 10° 125° (SE) 2,459 5.0 -23.4°
Sets 03:17:32 0° 133° (SE) 3,393 5.7 -23.0°
